JUGNU
1 37839U 11058B 14072.45312463 .00000594 00000-0 17578-3 0 5790
2 37839 019.9612 115.1347 0019201 010.1167 135.9710 14.12266615125009
SRMSAT
1 37841U 11058D 14072.45213296 .00000552 00000-0 16019-3 0 5813
2 37841 019.9715 132.5441 0011877 314.1106 162.7962 14.10315815124826
RAX-2
1 37853U 11061D 14072.84608174 .00016330 00000-0 11388-2 0 7485
2 37853 101.7151 057.1352 0221450 332.4802 087.5963 14.87806259128473
AUBIESAT
1 37854U 11061E 14072.17411059 .00020880 00000-0 14139-2 0 7309
2 37854 101.7191 057.6800 0219749 332.1121 087.6325 14.88958633128412
HRBE
1 37855U 11061F 14071.59327160 .00017221 00000-0 11798-2 0 7408
2 37855 101.7190 056.3269 0221837 334.7771 139.1092 14.88335487128305
RS-39
1 38051U 11062C 14072.79213892 .00065784 00000-0 12500-2 0 3547
2 38051 051.6316 338.7299 0010271 168.1610 295.9877 15.47591450119274
E-STAR
1 38079U 12006C 14072.44139146 .00163229 76767-5 24478-2 0 7774
2 38079 069.4574 240.1394 0455572 132.3997 323.8804 14.85824415109122
GOLIAT
1 38085U 12006J 14072.84620850 .00156013 71785-5 23941-2 0 8810
2 38085 069.4589 244.2673 0473368 134.4976 340.6900 14.81656505109047
HORYU-2
1 38340U 12025D 14071.85764234 .00003362 00000-0 54288-3 0 7903
2 38340 098.2503 027.5176 0013298 117.8917 242.3629 14.72021757 97620
RS-40
1 38735U 12041C 14072.06566456 .00000024 00000-0 10000-3 0 5138
2 38735 082.4809 347.4787 0017775 102.5149 257.7921 12.42557375 73642
PROITERES
1 38756U 12047B 14072.80414937 .00001591 00000-0 24564-3 0 6563
2 38756 098.2287 159.5408 0012080 333.9598 026.1001 14.74737765 81123
BEESAT-3
1 39134U 13015E 14072.20880555 .00010707 00000-0 78783-3 0 5242
2 39134 064.8777 082.0280 0019234 325.1553 034.8306 15.03615841 49229
BEESAT-2
1 39136U 13015G 14071.50712340 .00009393 00000-0 70043-3 0 5141
2 39136 064.8744 084.4619 0019416 325.3583 034.6272 15.03201375 49115
LO-75
1 39382U 13064C 14072.06021332 .00070422 00000-0 22878-2 0 1480
2 39382 040.4988 308.7874 0010766 280.3924 079.5634 15.30902098 17251
ZACUBE-1
1 39417U 13066B 14072.64173778 .00003371 00000-0 46310-3 0 2430
2 39417 097.7831 146.5318 0062828 192.2116 167.7586 14.77634349 16585
TRITON-1
1 39427U 13066M 14072.44560195 .00003102 00000-0 53054-3 0 952
2 39427 097.7709 144.0971 0118651 194.5194 165.2587 14.64985930 16377
DELFIN3XT
1 39428U 13066N 14072.43095249 .00004877 00000-0 85751-3 0 998
2 39428 097.7694 143.6501 0130002 195.3489 164.3724 14.62642897 16334
GOMX-1
1 39430U 13066Q 14072.75946796 .00002850 00000-0 55154-3 0 3028
2 39430 097.7668 142.9013 0157268 197.0138 162.5730 14.56430376 16327
$50SAT
1 39436U 13066W 14072.19559658 .00022292 00000-0 24759-2 0 1272
2 39436 097.7851 147.4496 0029439 204.4008 155.5577 14.86888490 16596
LO-74
1 39440U 13066AA 14072.41149626 .00003299 00000-0 49740-3 0 938
2 39440 097.7781 145.4189 0084509 192.6545 167.2539 14.72606931 16482
PUCPSAT-1
1 39442U 13066AC 14072.13414687 .00005116 00000-0 59395-3 0 905
2 39442 097.7874 147.3900 0034865 199.5037 160.4803 14.85385339 15366
LITSAT-1
1 39568U 98067EM 14072.76506024 .00155253 00000-0 22041-2 0 101
2 39568 051.6466 212.3235 0005965 300.9023 200.3267 15.55360598 2077
LITUANSAT
1 39569U 98067EN 14072.83185112 .00099721 00000-0 15001-2 0 487
2 39569 051.6479 212.0550 0005330 293.1767 189.4558 15.54019405 2081
SHINAISAT
1 39572U 14009A 14072.73881896 .00051475 00000-0 63070-3 0 277
2 39572 065.0125 012.1302 0011685 282.2781 077.7575 15.59940006 2174
OPUSAT
1 39575U 14009D 14072.98643444 .00110847 00000-0 11953-2 0 318
2 39575 065.0161 011.1050 0003989 317.4251 118.6770 15.63091717 2215
TEIKYOSAT
1 39576U 14009E 14072.99731425 .00068300 00000-0 79359-3 0 262
2 39576 065.0162 011.1707 0006169 296.7655 137.4669 15.61332240 2219
IFT-1
1 39577U 14009F 14072.59174076 .00075486 00000-0 84179-3 0 272
2 39577 065.0123 012.4827 0005131 320.5079 039.6214 15.62456726 2157
INVADER
1 39578U 14009G 14072.83908163 .00169401 00000-0 17152-2 0 235
2 39578 065.0084 011.5675 0004252 297.4910 062.5922 15.64487193 2193
STARS-II
1 39579U 14009H 14072.78662513 .00235695 00000-0 24249-2 0 218
2 39579 065.0123 011.8336 0007843 273.7690 086.2575 15.63838067 2181
